Regional Weather Roundup
Issued by NWS

Home | Current Version | Previous Version | Graphics & Text | Print | Product List | Glossary On
Versions: 1 2 3 4 5 6 7 8 9 10 11 12 13 14 15 16 17 18 19 20 21 22 23 24 25 26 27 28 29 30 31 32 33 34 35 36 37 38 39 40 41 42 43 44 45 46 47 48 49 50
991
ASUS43 KIND 290909
RWRIN

WEATHER ROUNDUP FOR INDIANA
NATIONAL WEATHER SERVICE INDIANAPOLIS IN
500 AM EDT MON AUG 29 2016

NOTE: "FAIR" INDICATES FEW OR NO CLOUDS BELOW 12,000 FEET WITH NO
SIGNIFICANT WEATHER AND/OR OBSTRUCTIONS TO VISIBILITY.

* - STATION DOES NOT REPORT WEATHER SUCH AS PRECIPITATION OR FOG.

+ - STATION NOT QUALITY CONTROLLED BY THE NATIONAL WEATHER SERVICE.
    USE DATA WITH CAUTION...ESPECIALLY DEWPOINT AND RELATIVE
    HUMIDITY OBSERVATIONS.

INZ001>003-010>013-019-020-291000-
NORTHWEST INDIANA

CITY           SKY/WX    TMP DP  RH WIND       PRES   REMARKS
GARY /AIRPORT/ PTCLDY    71  71 100 N3        30.20F
KNOX *+          N/A     64  57  77 CALM      30.20F VSB 1
LA PORTE +     FOG      N/A N/A N/A CALM      30.21F VSB 1/2
MICHIGAN CITY+ PTCLDY    64  64 100 MISG      30.21F FOG
MONTICELLO +   MOCLDY    69  65  88 NE3       30.17F
RENSSELAER +   CLEAR     68  68 100 CALM      30.19F FOG
VALPARAISO     PTCLDY    69  68  96 N5        30.21S

$$

LMZ046-743>745-291000-
SOUTHERN LAKE MICHIGAN

STATION/POSITION TIME  TEMP    WIND        PRES    WAVE
                       AIR SEA DIR/SP/G            HT
                 (UTC) (F)     (DEG/KT/KT) (MB)    (FT)
BURNS HARBOR     0804   71      CALM  /  5 1023.0S
MICHIGAN CITY    0800   69      40/  3/  3   N/A
5NW MICH CITY    0800   72 75  110/  4/  4   N/A     1

$$

INZ004-005-014>016-021>024-291000-
NORTH CENTRAL INDIANA

CITY           SKY/WX    TMP DP  RH WIND       PRES   REMARKS
GOSHEN         FOG       65  63  93 CALM      30.21F VSB 3/4
LOGANSPORT +   PTCLDY    68  68 100 E6        30.20F
PERU/GRISSOM   PTCLDY    68  68 100 NE6       30.18F
ROCHESTER +      N/A     68  68 100 CALM      30.21F FOG
SOUTH BEND     CLEAR     67  66  97 N5        30.22S
WARSAW +       CLEAR     66  66 100 CALM      30.21S FOG

$$

INZ006>009-017-018-025>027-291000-
NORTHEAST INDIANA

CITY           SKY/WX    TMP DP  RH WIND       PRES   REMARKS
ANGOLA *+      MOCLDY    64  59  82 CALM      30.23S VSB 1/2
AUBURN +       CLEAR     64  63  94 CALM      30.23S
FORT WAYNE     PTCLDY    68  65  90 CALM      30.21S
HUNTINGTON +   CLOUDY    65  64  96 CALM      30.20F

$$

INZ028-029-035-036-043>045-051>053-291000-
WEST CENTRAL INDIANA

CITY           SKY/WX    TMP DP  RH WIND       PRES   REMARKS
CRAWFORDSVL +  PTCLDY    67  67 100 CALM      30.17F
GREENCASTLE +  CLEAR     70  70 100 CALM      30.18S
LAFAYETTE      CLOUDY    69  69 100 CALM      30.15F
TERRE HAUTE    CLEAR     70  67  90 N5        30.17S

$$

INZ030>032-037>040-046>048-054>057-064-065-291000-
CENTRAL INDIANA

CITY           SKY/WX    TMP DP  RH WIND       PRES   REMARKS
INDIANAPOLIS   CLEAR     71  68  90 NE6       30.16F
-EAGLE CREEK   CLEAR     70  68  93 CALM      30.17F
KOKOMO *+      PTCLDY    68  66  94 NE5       30.20F
MARION +       CLEAR     66  66 100 E6        30.21S FOG
MT COMFORT *+  PTCLDY    66  64  94 CALM      30.19S
SHELBYVILLE    CLEAR     69  66  90 E6        30.18S
ZIONSVILLE +   PTCLDY    67  66  99 CALM      30.19F

$$

INZ033-034-041-042-049-050-058-059-291000-
EAST CENTRAL INDIANA

CITY           SKY/WX    TMP DP  RH WIND       PRES   REMARKS
MUNCIE         CLEAR     68  66  93 E6        30.21R FOG

$$

INZ060-061-067>069-081>083-085>088-291000-
SOUTHWEST INDIANA

CITY           SKY/WX    TMP DP  RH WIND       PRES   REMARKS
EVANSVILLE     PTCLDY    72  69  90 CALM      30.14S
HUNTINGBURG *+ PTCLDY    70  66  88 E3        30.15S
WASHINGTON +   CLOUDY    71  71 100 MISG      30.16R

$$

INZ062-063-066-070>080-084-089>092-291000-
SOUTH CENTRAL AND SOUTHEAST INDIANA

CITY           SKY/WX    TMP DP  RH WIND       PRES   REMARKS
BLOOMINGTON    PTCLDY    70  67  90 E5        30.18R
MADISON *+     CLEAR     68  66  94 NE3       30.21R

$$





USA.gov is the U.S. government's official web portal to all federal, state and local government web resources and services.